HP3ICC-16 Weather Reports


Display with metric or nautical units.
time (UTC)temp
F
wind
direction
speed
MPH
gust
MPH
rain 1hr
in
rain 24hr
in
rain mn
in
humidity
%
barometer
mb
20260507132508 75 0 1.0 0.0 0.00 0.00 0.00 94 1010.0
20260507132408 75 0 1.0 0.0 0.00 0.00 0.00 94 1010.0
20260507130508 76 0 1.0 0.0 0.00 0.00 0.00 94 1010.0
20260507130408 76 0 1.0 0.0 0.00 0.00 0.00 94 1010.0
20260507124507 74 0 1.0 0.0 0.00 0.00 0.00 94 1010.0
20260507124407 74 0 1.0 0.0 0.00 0.00 0.00 94 1010.0
20260507122507 75 70 1.0 0.0 0.00 0.00 0.00 94 1010.0
20260507122407 75 70 1.0 0.0 0.00 0.00 0.00 94 1010.0
20260507120506 76 70 2.0 0.0 0.00 0.00 0.00 94 1010.0
20260507120406 76 70 2.0 0.0 0.00 0.00 0.00 94 1010.0
20260507114506 71 70 2.0 0.0 0.00 0.00 0.00 81 1010.0
20260507114405 71 70 2.0 0.0 0.00 0.00 0.00 81 1010.0
20260507112505 72 70 2.0 0.0 0.00 0.00 0.00 81 1009.0
20260507112405 72 70 2.0 0.0 0.00 0.00 0.00 81 1009.0
20260507110504 73 3 1.0 1.0 0.00 0.00 0.00 81 1010.0
20260507110404 73 3 1.0 1.0 0.00 0.00 0.00 81 1010.0
20260507104504 74 3 2.0 1.0 0.00 0.00 0.00 81 1010.0
20260507104403 74 3 2.0 1.0 0.00 0.00 0.00 81 1010.0
20260507102503 72 347 1.0 1.0 0.00 0.00 0.00 83 1010.0
20260507102403 72 347 1.0 1.0 0.00 0.00 0.00 83 1010.0
20260507100503 73 347 1.0 1.0 0.00 0.00 0.00 83 1010.0
20260507100402 73 347 1.0 1.0 0.00 0.00 0.00 83 1010.0
20260507094502 74 347 1.0 1.0 0.00 0.00 0.00 83 1010.0
20260507094402 74 347 1.0 1.0 0.00 0.00 0.00 83 1010.0
20260507092502 75 347 2.0 2.0 0.00 0.00 0.00 83 1010.0
20260507092401 75 347 2.0 2.0 0.00 0.00 0.00 83 1010.0
20260507090501 72 344 1.0 1.0 0.00 0.00 0.00 84 1010.0
20260507090401 72 344 1.0 1.0 0.00 0.00 0.00 84 1010.0
20260507084500 73 344 1.0 1.0 0.00 0.00 0.00 84 1010.0
20260507084400 73 344 1.0 1.0 0.00 0.00 0.00 84 1010.0
20260507082500 74 344 2.0 2.0 0.00 0.00 0.00 84 1010.0
20260507082400 74 344 2.0 2.0 0.00 0.00 0.00 84 1010.0
20260507080500 72 338 1.0 1.0 0.00 0.00 0.00 85 1010.0
20260507080359 72 338 1.0 1.0 0.00 0.00 0.00 85 1010.0
20260507074459 73 338 1.0 1.0 0.00 0.00 0.00 85 1010.0
20260507074359 73 338 1.0 1.0 0.00 0.00 0.00 85 1010.0
20260507072458 74 338 1.0 1.0 0.00 0.00 0.00 85 1010.0
20260507072358 74 338 1.0 1.0 0.00 0.00 0.00 85 1010.0
20260507070458 75 338 1.0 1.0 0.00 0.00 0.00 85 1010.0
20260507070358 75 338 1.0 1.0 0.00 0.00 0.00 85 1010.0
20260507064458 76 338 1.0 1.0 0.00 0.00 0.00 85 1010.0
20260507064357 76 338 1.0 1.0 0.00 0.00 0.00 85 1010.0
20260507062457 73 350 1.0 1.0 0.00 0.00 0.00 87 1011.0
20260507062357 73 350 1.0 1.0 0.00 0.00 0.00 87 1011.0
20260507060456 74 350 1.0 1.0 0.00 0.00 0.00 87 1011.0
20260507060356 74 350 1.0 1.0 0.00 0.00 0.00 87 1011.0
20260507054456 73 356 1.0 1.0 0.00 0.00 0.00 88 1011.0
20260507054355 73 356 1.0 1.0 0.00 0.00 0.00 88 1011.0
20260507052455 74 356 1.0 1.0 0.00 0.00 0.00 88 1011.0
20260507052355 74 356 1.0 1.0 0.00 0.00 0.00 88 1011.0
20260507050455 75 356 1.0 1.0 0.00 0.00 0.00 88 1011.0
20260507050354 75 356 1.0 1.0 0.00 0.00 0.00 88 1011.0
20260507044454 76 356 1.0 1.0 0.00 0.00 0.00 88 1011.0
20260507044354 76 356 1.0 1.0 0.00 0.00 0.00 88 1011.0
20260507042453 77 356 1.0 1.0 0.00 0.00 0.00 88 1011.0
20260507042353 77 356 1.0 1.0 0.00 0.00 0.00 88 1011.0
20260507040453 74 40 3.0 0.0 0.00 0.00 0.00 89 1011.0
20260507040352 74 40 3.0 0.0 0.00 0.00 0.00 89 1011.0
20260507034452 75 40 3.0 0.0 0.00 0.00 0.00 89 1011.0
20260507034352 75 40 3.0 0.0 0.00 0.00 0.00 89 1011.0
20260507032451 76 40 3.0 0.0 0.00 0.00 0.00 89 1011.0
20260507032351 76 40 3.0 0.0 0.00 0.00 0.00 89 1011.0
20260507030451 77 0 2.0 0.0 0.00 0.00 0.00 89 1011.0
20260507030351 77 0 2.0 0.0 0.00 0.00 0.00 89 1011.0
20260507024450 78 0 2.0 0.0 0.00 0.00 0.00 89 1011.0
20260507024350 78 0 2.0 0.0 0.00 0.00 0.00 89 1011.0
20260507022450 79 0 2.0 0.0 0.00 0.00 0.00 89 1010.0
20260507022350 79 0 2.0 0.0 0.00 0.00 0.00 89 1010.0
20260507020449 80 0 2.0 0.0 0.00 0.00 0.00 89 1010.0
20260507020349 80 0 2.0 0.0 0.00 0.00 0.00 89 1010.0
20260507014449 75 240 8.0 0.0 0.00 0.00 0.00 74 1010.0
20260507014349 75 240 8.0 0.0 0.00 0.00 0.00 74 1010.0
20260507012448 76 240 8.0 0.0 0.00 0.00 0.00 74 1009.0
20260507012347 76 240 8.0 0.0 0.00 0.00 0.00 74 1009.0
20260507010447 77 240 8.0 0.0 0.00 0.00 0.00 74 1009.0
20260507010347 77 240 8.0 0.0 0.00 0.00 0.00 74 1009.0
20260507004447 78 240 8.0 0.0 0.00 0.00 0.00 74 1009.0
20260507004347 78 240 8.0 0.0 0.00 0.00 0.00 74 1009.0
20260507002446 79 240 8.0 0.0 0.01 0.00 0.00 74 1009.0
20260507002346 79 240 8.0 0.0 0.01 0.00 0.00 74 1009.0
20260507000446 80 240 8.0 0.0 0.01 0.00 0.00 74 1009.0
20260507000346 80 240 8.0 0.0 0.01 0.00 0.00 74 1009.0
20260506234445 81 240 8.0 0.0 0.00 0.00 0.00 74 1009.0
20260506234345 81 240 8.0 0.0 0.00 0.00 0.00 74 1009.0
20260506232445 82 240 9.0 0.0 0.00 0.00 0.00 74 1008.0
20260506232344 82 240 9.0 0.0 0.00 0.00 0.00 74 1008.0
20260506230444 83 220 8.0 0.0 0.00 0.00 0.00 74 1008.0
20260506230344 83 220 8.0 0.0 0.00 0.00 0.00 74 1008.0
20260506224444 84 220 6.0 0.0 0.00 0.00 0.00 74 1008.0
20260506224344 84 220 6.0 0.0 0.00 0.00 0.00 74 1008.0
20260506222443 85 220 6.0 0.0 0.01 0.00 0.00 74 1008.0
20260506222343 85 220 6.0 0.0 0.01 0.00 0.00 74 1008.0
20260506220443 86 210 5.0 0.0 0.00 0.00 0.00 74 1008.0
20260506220342 86 210 5.0 0.0 0.00 0.00 0.00 74 1008.0
20260506214442 87 210 5.0 0.0 0.01 0.00 0.00 74 1008.0
20260506214342 87 210 5.0 0.0 0.01 0.00 0.00 74 1008.0
20260506212442 81 190 8.0 0.0 0.01 0.00 0.00 70 1008.0
20260506212341 81 190 8.0 0.0 0.01 0.00 0.00 70 1008.0
20260506210441 82 190 8.0 0.0 0.00 0.00 0.00 70 1008.0
20260506210341 82 190 8.0 0.0 0.00 0.00 0.00 70 1008.0
20260506204441 83 190 8.0 0.0 0.01 0.00 0.00 70 1008.0
20260506204340 83 190 8.0 0.0 0.01 0.00 0.00 70 1008.0
20260506202440 84 190 8.0 0.0 0.00 0.00 0.00 70 1009.0
20260506202340 84 190 8.0 0.0 0.00 0.00 0.00 70 1009.0
20260506200439 85 190 9.0 0.0 0.01 0.00 0.00 70 1009.0
20260506200339 85 190 9.0 0.0 0.01 0.00 0.00 70 1009.0
20260506194439 86 190 6.0 0.0 0.00 0.00 0.00 70 1009.0
20260506194338 86 190 6.0 0.0 0.00 0.00 0.00 70 1009.0
20260506192438 87 190 6.0 0.0 0.01 0.00 0.00 70 1010.0
20260506192338 87 190 6.0 0.0 0.01 0.00 0.00 70 1010.0
20260506190438 88 220 4.0 0.0 0.00 0.00 0.00 70 1010.0
20260506190338 88 220 4.0 0.0 0.00 0.00 0.00 70 1010.0
20260506184437 89 220 4.0 0.0 0.01 0.00 0.00 70 1009.0
20260506184337 89 220 4.0 0.0 0.01 0.00 0.00 70 1009.0
20260506182436 83 220 4.0 0.0 0.00 0.00 0.00 74 1010.0
20260506182336 83 220 4.0 0.0 0.00 0.00 0.00 74 1010.0
20260506180436 84 210 4.0 0.0 0.00 0.00 0.00 74 1010.0
20260506180336 84 210 4.0 0.0 0.00 0.00 0.00 74 1010.0
20260506174435 85 210 4.0 0.0 0.00 0.00 0.00 74 1010.0
20260506174335 85 210 4.0 0.0 0.00 0.00 0.00 74 1010.0
20260506172435 86 210 4.0 0.0 0.00 0.00 0.00 74 1011.0
20260506172335 86 210 4.0 0.0 0.00 0.00 0.00 74 1011.0
20260506170435 87 170 4.0 0.0 0.00 0.00 0.00 74 1011.0
20260506170335 87 170 4.0 0.0 0.00 0.00 0.00 74 1011.0
20260506164434 82 170 4.0 0.0 0.00 0.00 0.00 79 1011.0
20260506164334 82 170 4.0 0.0 0.00 0.00 0.00 79 1011.0
20260506162433 83 170 4.0 0.0 0.00 0.00 0.00 79 1011.0
20260506162333 83 170 4.0 0.0 0.00 0.00 0.00 79 1011.0
20260506160433 84 0 2.0 0.0 0.00 0.00 0.00 79 1011.0
20260506154432 85 0 2.0 0.0 0.00 0.00 0.00 79 1011.0
20260506154332 85 0 2.0 0.0 0.00 0.00 0.00 79 1011.0
20260506152432 80 0 2.0 0.0 0.00 0.00 0.00 79 1011.0
20260506152331 80 0 2.0 0.0 0.00 0.00 0.00 79 1011.0
20260506150431 81 0 2.0 0.0 0.00 0.00 0.00 79 1011.0
20260506150331 81 0 2.0 0.0 0.00 0.00 0.00 79 1011.0
20260506144330 82 0 2.0 0.0 0.00 0.00 0.00 79 1011.0
20260506142430 83 0 2.0 0.0 0.00 0.00 0.00 79 1011.0
20260506142330 83 0 2.0 0.0 0.00 0.00 0.00 79 1011.0
20260506140429 78 0 1.0 0.0 0.00 0.00 0.00 89 1011.0
20260506140329 78 0 1.0 0.0 0.00 0.00 0.00 89 1011.0
20260506134429 77 0 1.0 0.0 0.00 0.00 0.00 89 1011.0
20260506134329 77 0 1.0 0.0 0.00 0.00 0.00 89 1011.0